TimeCDT,TemperatureF,Dew PointF,Humidity,Sea Level PressureIn,VisibilityMPH,Wind Direction,Wind SpeedMPH,Gust SpeedMPH,PrecipitationIn,Events,Conditions,WindDirDegrees,DateUTC
12:53 AM,34.0,30.0,85,30.23,10.0,Calm,Calm,-,N/A,,Clear,0,2012-10-08 05:53:00
1:53 AM,32.0,28.9,88,30.22,10.0,SW,3.5,-,N/A,,Clear,220,2012-10-08 06:53:00
2:53 AM,34.0,30.0,85,30.22,10.0,SW,3.5,-,N/A,,Clear,220,2012-10-08 07:53:00
3:53 AM,33.1,28.9,85,30.20,10.0,Calm,Calm,-,N/A,,Clear,0,2012-10-08 08:53:00
4:53 AM,32.0,28.9,88,30.20,10.0,WSW,4.6,-,N/A,,Clear,240,2012-10-08 09:53:00
5:53 AM,32.0,28.0,85,30.19,10.0,Calm,Calm,-,N/A,,Clear,0,2012-10-08 10:53:00
6:53 AM,32.0,28.0,85,30.20,10.0,Calm,Calm,-,N/A,,Clear,0,2012-10-08 11:53:00
7:53 AM,34.0,30.0,85,30.22,9.0,Calm,Calm,-,N/A,,Clear,0,2012-10-08 12:53:00
8:53 AM,41.0,34.0,76,30.22,10.0,South,4.6,-,N/A,,Clear,180,2012-10-08 13:53:00
9:53 AM,50.0,32.0,50,30.22,10.0,South,8.1,-,N/A,,Clear,190,2012-10-08 14:53:00
10:53 AM,55.0,30.0,38,30.19,10.0,SW,12.7,-,N/A,,Clear,220,2012-10-08 15:53:00
11:53 AM,60.1,30.9,33,30.17,10.0,SSW,11.5,19.6,N/A,,Clear,210,2012-10-08 16:53:00
12:53 PM,62.1,33.1,34,30.13,10.0,South,10.4,17.3,N/A,,Clear,190,2012-10-08 17:53:00
1:53 PM,64.0,32.0,30,30.10,10.0,SW,11.5,26.5,N/A,,Clear,220,2012-10-08 18:53:00
2:53 PM,66.0,33.1,29,30.07,10.0,South,18.4,23.0,N/A,,Clear,190,2012-10-08 19:53:00
3:53 PM,66.0,33.1,29,30.04,10.0,South,15.0,-,N/A,,Clear,190,2012-10-08 20:53:00
4:53 PM,64.9,33.1,31,30.02,10.0,SSW,15.0,20.7,N/A,,Clear,200,2012-10-08 21:53:00
5:53 PM,64.0,33.1,31,30.01,10.0,South,15.0,-,N/A,,Clear,180,2012-10-08 22:53:00
6:53 PM,59.0,33.1,38,30.00,10.0,South,9.2,-,N/A,,Clear,170,2012-10-08 23:53:00
7:53 PM,55.0,33.1,43,30.01,10.0,South,8.1,-,N/A,,Clear,190,2012-10-09 00:53:00
8:53 PM,52.0,32.0,47,30.03,10.0,South,6.9,-,N/A,,Clear,180,2012-10-09 01:53:00
9:53 PM,52.0,33.1,49,30.03,10.0,South,9.2,-,N/A,,Clear,170,2012-10-09 02:53:00
10:53 PM,52.0,34.0,50,30.02,10.0,South,10.4,-,N/A,,Clear,170,2012-10-09 03:53:00
11:53 PM,48.9,34.0,56,30.01,10.0,South,6.9,-,N/A,,Clear,170,2012-10-09 04:53:00